,,Stat5,,Stat1,,Stat2,,Stat3,,Stat4,,Wind1,,Wind1,
time,status,PA1M_AVG,status,PR1M_SUM,status,RH1M_AVG,status,SR1M_AVG,status,TA1M_AVG,status,W1dAve1m,status,W1sAve1m,
2002-04-07, 00:00:00,VALID,918.142,VALID,0,VALID,98.2111,VALID,0,VALID,21.1381,VALID,320,VALID,0,
2002-04-07, 00:01:00,VALID,918.12,VALID,0,VALID,98.206,VALID,0,VALID,21.1408,VALID,320,VALID,0,
2002-04-07, 00:02:00,VALID,918.117,VALID,0,VALID,98.1819,VALID,-0.0169808,VALID,21.1378,VALID,320,VALID,0,
2002-04-07, 00:03:00,VALID,918.116,VALID,0,VALID,98.2137,VALID,-0.0169808,VALID,21.1405,VALID,329,VALID,0.0910773,
2002-04-07, 00:04:00,VALID,918.125,VALID,0,VALID,98.206,VALID,-0.0679233,VALID,21.1543,VALID,2,VALID,0.482205,
2002-04-07, 00:05:00,VALID,918.124,VALID,0,VALID,98.1806,VALID,-0.0169808,VALID,21.1438,VALID,13,VALID,0.808093,
2002-04-07, 00:06:00,VALID,918.129,VALID,0,VALID,98.2238,VALID,0,VALID,21.1669,VALID,17,VALID,0.976563,
2002-04-07, 00:07:00,VALID,918.138,VALID,0,VALID,98.2429,VALID,-0.0169808,VALID,21.1965,VALID,20,VALID,1.03495,
2002-04-07, 00:08:00,VALID,918.15,VALID,0,VALID,98.22,VALID,0,VALID,21.1995,VALID,19,VALID,0.942491,
2002-04-07, 00:09:00,VALID,918.145,VALID,0,VALID,98.1895,VALID,-0.0169808,VALID,21.2092,VALID,22,VALID,0.652027,
2002-04-07, 00:10:00,VALID,918.169,VALID,0,VALID,98.131,VALID,0,VALID,21.1895,VALID,358,VALID,0.660056,
2002-04-07, 00:11:00,VALID,918.175,VALID,0,VALID,98.1615,VALID,0,VALID,21.1836,VALID,7,VALID,0.350446,
2002-04-07, 00:12:00,VALID,918.171,VALID,0,VALID,98.1831,VALID,-0.0169808,VALID,21.1863,VALID,7,VALID,0.677517,
2002-04-07, 00:13:00,VALID,918.158,VALID,0,VALID,98.1933,VALID,-0.0679233,VALID,21.1766,VALID,1,VALID,0.425681,
2002-04-07, 00:14:00,VALID,918.15,VALID,0,VALID,98.2149,VALID,-0.0169808,VALID,21.1734,VALID,7,VALID,0.351997,
2002-04-07, 00:15:00,VALID,918.149,VALID,0,VALID,98.2696,VALID,-0.0339617,VALID,21.1863,VALID,22,VALID,0.231086,
2002-04-07, 00:16:00,VALID,918.154,VALID,0,VALID,98.337,VALID,-0.0169808,VALID,21.2186,VALID,22,VALID,0.404297,
2002-04-07, 00:17:00,VALID,918.156,VALID,0,VALID,98.3612,VALID,-0.0169808,VALID,21.2445,VALID,21,VALID,0.172092,
2002-04-07, 00:18:00,VALID,918.16,VALID,0,VALID,98.3662,VALID,0,VALID,21.2703,VALID,21,VALID,0.543269,
2002-04-07, 00:19:00,VALID,918.172,VALID,0,VALID,98.379,VALID,0,VALID,21.29,VALID,24,VALID,0.599777,
2002-04-07, 00:20:00,VALID,918.18,VALID,0,VALID,98.398,VALID,0,VALID,21.2991,VALID,24,VALID,0.838471,
2002-04-07, 00:21:00,VALID,918.182,VALID,0,VALID,98.3777,VALID,0,VALID,21.3156,VALID,24,VALID,0.70558,
2002-04-07, 00:22:00,VALID,918.188,VALID,0,VALID,98.379,VALID,-0.0169808,VALID,21.3252,VALID,25,VALID,0.286024,
2002-04-07, 00:23:00,VALID,918.191,VALID,0,VALID,98.3408,VALID,0,VALID,21.3158,VALID,21,VALID,0.478766,
2002-04-07, 00:24:00,VALID,918.182,VALID,0,VALID,98.3192,VALID,-0.0169808,VALID,21.3156,VALID,20,VALID,0.621875,
2002-04-07, 00:25:00,VALID,918.156,VALID,0,VALID,98.3052,VALID,-0.0169808,VALID,21.3126,VALID,22,VALID,0.885346,
2002-04-07, 00:26:00,VALID,918.143,VALID,0,VALID,98.2912,VALID,0,VALID,21.3091,VALID,9,VALID,1.04241,
2002-04-07, 00:27:00,VALID,918.135,VALID,0,VALID,98.2963,VALID,-0.0509425,VALID,21.3123,VALID,14,VALID,0.470269,
2002-04-07, 00:28:00,VALID,918.123,VALID,0,VALID,98.3065,VALID,-0.0339617,VALID,21.3285,VALID,23,VALID,0.315755,
2002-04-07, 00:29:00,VALID,918.104,VALID,0,VALID,98.295,VALID,-0.0339617,VALID,21.3317,VALID,15,VALID,0.166884,
2002-04-07, 00:30:00,VALID,918.122,VALID,0,VALID,98.2442,VALID,-0.0339617,VALID,21.2954,VALID,336,VALID,0.187089,
2002-04-07, 00:31:00,VALID,918.115,VALID,0,VALID,98.2162,VALID,0,VALID,21.3029,VALID,337,VALID,0.00434028,
2002-04-07, 00:32:00,VALID,918.118,VALID,0,VALID,98.192,VALID,-0.0169808,VALID,21.2857,VALID,337,VALID,0.162543,
2002-04-07, 00:33:00,VALID,918.111,VALID,0,VALID,98.1933,VALID,-0.0169808,VALID,21.276,VALID,337,VALID,0.0911458,
2002-04-07, 00:34:00,VALID,918.112,VALID,0,VALID,98.2022,VALID,-0.0169808,VALID,21.2862,VALID,343,VALID,0.401563,
2002-04-07, 00:35:00,VALID,918.104,VALID,0,VALID,98.2442,VALID,0,VALID,21.3026,VALID,13,VALID,0.446157,
2002-04-07, 00:36:00,VALID,918.099,VALID,0,VALID,98.2429,VALID,0,VALID,21.3115,VALID,13,VALID,0.390179,
2002-04-07, 00:37:00,VALID,918.108,VALID,0,VALID,98.1831,VALID,-0.0169808,VALID,21.2859,VALID,13,VALID,0.393446,
2002-04-07, 00:38:00,VALID,918.106,VALID,0,VALID,98.1793,VALID,0,VALID,21.2859,VALID,13,VALID,0.327925,
2002-04-07, 00:39:00,VALID,918.122,VALID,0,VALID,98.159,VALID,0,VALID,21.2757,VALID,13,VALID,0.400446,
2002-04-07, 00:40:00,VALID,918.122,VALID,0,VALID,98.1666,VALID,0,VALID,21.2735,VALID,14,VALID,0.454814,
2002-04-07, 00:41:00,VALID,918.135,VALID,0,VALID,98.1577,VALID,-0.0169808,VALID,21.2765,VALID,12,VALID,0.578348,
2002-04-07, 00:42:00,VALID,918.119,VALID,0,VALID,98.1068,VALID,0,VALID,21.2539,VALID,17,VALID,0.811632,
2002-04-07, 00:43:00,VALID,918.119,VALID,0,VALID,98.1132,VALID,0,VALID,21.2313,VALID,26,VALID,0.787543,
2002-04-07, 00:44:00,VALID,918.103,VALID,0,VALID,98.1412,VALID,0,VALID,21.2383,VALID,29,VALID,0.705946,
2002-04-07, 00:45:00,VALID,918.089,VALID,0,VALID,98.1297,VALID,0,VALID,21.228,VALID,29,VALID,0.69778,
2002-04-07, 00:46:00,VALID,918.074,VALID,0,VALID,98.1056,VALID,0,VALID,21.2019,VALID,19,VALID,0.567925,
2002-04-07, 00:47:00,VALID,918.046,VALID,0,VALID,98.1196,VALID,0,VALID,21.1984,VALID,9,VALID,0.760417,
2002-04-07, 00:48:00,VALID,918.031,VALID,0,VALID,98.1106,VALID,0,VALID,21.1761,VALID,30,VALID,0.75601,
2002-04-07, 00:49:00,VALID,918.025,VALID,0,VALID,98.089,VALID,0,VALID,21.1599,VALID,31,VALID,0.875893,
2002-04-07, 00:50:00,VALID,917.999,VALID,0,VALID,98.0483,VALID,0,VALID,21.1411,VALID,19,VALID,1.0114,
2002-04-07, 00:51:00,VALID,917.988,VALID,0,VALID,98.0992,VALID,0,VALID,21.1209,VALID,30,VALID,0.699554,
2002-04-07, 00:52:00,VALID,917.988,VALID,0,VALID,98.1183,VALID,-0.0339617,VALID,21.1279,VALID,31,VALID,0.722439,
2002-04-07, 00:53:00,VALID,917.978,VALID,0,VALID,98.1221,VALID,0,VALID,21.1018,VALID,34,VALID,0.620994,
2002-04-07, 00:54:00,VALID,917.963,VALID,0,VALID,98.1081,VALID,-0.0339617,VALID,21.0861,VALID,49,VALID,0.852455,
2002-04-07, 00:55:00,VALID,917.95,VALID,0,VALID,98.1145,VALID,-0.0169808,VALID,21.0533,VALID,31,VALID,1.14316,
2002-04-07, 00:56:00,VALID,917.931,VALID,0,VALID,98.1679,VALID,-0.0339617,VALID,21.053,VALID,29,VALID,1.21406,
2002-04-07, 00:57:00,VALID,917.918,VALID,0,VALID,98.2315,VALID,-0.0169808,VALID,21.0506,VALID,12,VALID,1.05642,
2002-04-07, 00:58:00,VALID,917.915,VALID,0,VALID,98.2734,VALID,-0.0509425,VALID,21.0543,VALID,17,VALID,0.870877,
2002-04-07, 00:59:00,VALID,917.9,VALID,0,VALID,98.3141,VALID,-0.0169808,VALID,21.0605,VALID,34,VALID,0.784071,
2002-04-07, 01:00:00,VALID,917.887,VALID,0,VALID,98.3726,VALID,-0.0339617,VALID,21.0605,VALID,360,VALID,0.527755,
2002-04-07, 01:01:00,VALID,917.889,VALID,0,VALID,98.4057,VALID,-0.0679233,VALID,21.0807,VALID,13,VALID,0.377387,
2002-04-07, 01:02:00,VALID,917.856,VALID,0,VALID,98.4502,VALID,-0.0509425,VALID,21.0802,VALID,13,VALID,0.101345,
2002-04-07, 01:03:00,VALID,917.85,VALID,0,VALID,98.4565,VALID,-0.0169808,VALID,21.0894,VALID,15,VALID,0.178085,
2002-04-07, 01:04:00,VALID,917.838,VALID,0,VALID,98.4413,VALID,-0.0169808,VALID,21.0861,VALID,350,VALID,0.324107,
2002-04-07, 01:05:00,VALID,917.837,VALID,0,VALID,98.4031,VALID,-0.0509425,VALID,21.0705,VALID,342,VALID,0.457348,
2002-04-07, 01:06:00,VALID,917.821,VALID,0,VALID,98.3688,VALID,-0.0509425,VALID,21.0414,VALID,6,VALID,0.465848,
2002-04-07, 01:07:00,VALID,917.798,VALID,0,VALID,98.4247,VALID,-0.0509425,VALID,21.0344,VALID,20,VALID,0.290582,
2002-04-07, 01:08:00,VALID,917.801,VALID,0,VALID,98.4476,VALID,-0.0679233,VALID,21.0449,VALID,20,VALID,0.624399,
2002-04-07, 01:09:00,VALID,917.788,VALID,0,VALID,98.44,VALID,-0.0339617,VALID,21.0509,VALID,16,VALID,0.807813,
2002-04-07, 01:10:00,VALID,917.779,VALID,0,VALID,98.384,VALID,-0.0509425,VALID,21.025,VALID,12,VALID,1.02682,
2002-04-07, 01:11:00,VALID,917.787,VALID,0,VALID,98.384,VALID,-0.0509425,VALID,21.025,VALID,348,VALID,0.521429,
2002-04-07, 01:12:00,VALID,917.801,VALID,0,VALID,98.4031,VALID,-0.0339617,VALID,21.0215,VALID,359,VALID,0.427951,
2002-04-07, 01:13:00,VALID,917.825,VALID,0,VALID,98.3764,VALID,-0.0509425,VALID,21.0352,VALID,7,VALID,0.421224,
2002-04-07, 01:14:00,VALID,917.832,VALID,0,VALID,98.3192,VALID,-0.0339617,VALID,21.025,VALID,360,VALID,0.375434,
2002-04-07, 01:15:00,VALID,917.853,VALID,0,VALID,98.2747,VALID,-0.0339617,VALID,20.9957,VALID,324,VALID,0.365748,
2002-04-07, 01:16:00,VALID,917.858,VALID,0,VALID,98.2721,VALID,-0.0169808,VALID,21.0056,VALID,312,VALID,0.0870226,
2002-04-07, 01:17:00,VALID,917.874,VALID,0,VALID,98.3039,VALID,-0.0509425,VALID,21.0121,VALID,311,VALID,0.0332031,
2002-04-07, 01:18:00,VALID,917.875,VALID,0,VALID,98.2772,VALID,-0.0509425,VALID,21.0183,VALID,311,VALID,0,
2002-04-07, 01:19:00,VALID,917.87,VALID,0,VALID,98.2709,VALID,0,VALID,21.0212,VALID,311,VALID,0,
2002-04-07, 01:20:00,VALID,917.872,VALID,0,VALID,98.2467,VALID,-0.0169808,VALID,21.0385,VALID,311,VALID,0,
2002-04-07, 01:21:00,VALID,917.859,VALID,0,VALID,98.2175,VALID,-0.0169808,VALID,21.0414,VALID,311,VALID,0.0254464,
2002-04-07, 01:22:00,VALID,917.864,VALID,0,VALID,98.1691,VALID,-0.0169808,VALID,21.0282,VALID,311,VALID,0,
2002-04-07, 01:23:00,VALID,917.853,VALID,0,VALID,98.145,VALID,0,VALID,21.015,VALID,310,VALID,0.0835337,
2002-04-07, 01:24:00,VALID,917.839,VALID,0,VALID,98.1297,VALID,-0.0169808,VALID,21.0056,VALID,220,VALID,0.298884,
2002-04-07, 01:25:00,VALID,917.831,VALID,0,VALID,98.1297,VALID,-0.0169808,VALID,20.9927,VALID,219,VALID,0.209459,
2002-04-07, 01:26:00,VALID,917.827,VALID,0,VALID,98.1208,VALID,-0.0509425,VALID,20.9868,VALID,221,VALID,0.371429,
2002-04-07, 01:27:00,VALID,917.822,VALID,0,VALID,98.1297,VALID,-0.0339617,VALID,20.9736,VALID,227,VALID,0.177951,
2002-04-07, 01:28:00,VALID,917.806,VALID,0,VALID,98.1208,VALID,-0.0339617,VALID,20.9577,VALID,227,VALID,0.103516,
2002-04-07, 01:29:00,VALID,917.787,VALID,0,VALID,98.1399,VALID,0,VALID,20.9509,VALID,227,VALID,0.0345052,
2002-04-07, 01:30:00,VALID,917.772,VALID,0,VALID,98.1539,VALID,-0.0339617,VALID,20.9544,VALID,227,VALID,0.165296,
2002-04-07, 01:31:00,VALID,917.776,VALID,0,VALID,98.1564,VALID,-0.0339617,VALID,20.9348,VALID,227,VALID,0.20421,
2002-04-07, 01:32:00,VALID,917.768,VALID,0,VALID,98.1145,VALID,-0.0169808,VALID,20.9022,VALID,227,VALID,0.0147569,
2002-04-07, 01:33:00,VALID,917.773,VALID,0,VALID,98.1374,VALID,-0.0509425,VALID,20.8863,VALID,227,VALID,0.196715,
2002-04-07, 01:34:00,VALID,917.768,VALID,0,VALID,98.1552,VALID,-0.0509425,VALID,20.8769,VALID,227,VALID,0.00758929,
2002-04-07, 01:35:00,VALID,917.769,VALID,0,VALID,98.1997,VALID,-0.0339617,VALID,20.8801,VALID,227,VALID,0,
2002-04-07, 01:36:00,VALID,917.747,VALID,0,VALID,98.2493,VALID,-0.0339617,VALID,20.896,VALID,227,VALID,0,
2002-04-07, 01:37:00,VALID,917.751,VALID,0,VALID,98.248,VALID,-0.0169808,VALID,20.9027,VALID,227,VALID,0,
2002-04-07, 01:38:00,VALID,917.738,VALID,0,VALID,98.2582,VALID,-0.0339617,VALID,20.8998,VALID,227,VALID,0,
2002-04-07, 01:39:00,VALID,917.738,VALID,0,VALID,98.2721,VALID,-0.0509425,VALID,20.913,VALID,227,VALID,0,
2002-04-07, 01:40:00,VALID,917.729,VALID,0,VALID,98.2696,VALID,-0.0169808,VALID,20.9097,VALID,227,VALID,0,
2002-04-07, 01:41:00,VALID,917.711,VALID,0,VALID,98.2073,VALID,-0.0509425,VALID,20.8896,VALID,227,VALID,0,
2002-04-07, 01:42:00,VALID,917.691,VALID,0,VALID,98.2124,VALID,-0.0509425,VALID,20.8871,VALID,227,VALID,0,
2002-04-07, 01:43:00,VALID,917.681,VALID,0,VALID,98.2073,VALID,-0.0509425,VALID,20.8731,VALID,227,VALID,0,
2002-04-07, 01:44:00,VALID,917.666,VALID,0,VALID,98.178,VALID,-0.0679233,VALID,20.8642,VALID,227,VALID,0,
2002-04-07, 01:45:00,VALID,917.655,VALID,0,VALID,98.1577,VALID,-0.0679233,VALID,20.8441,VALID,227,VALID,0.0966283,
2002-04-07, 01:46:00,VALID,917.639,VALID,0,VALID,98.1946,VALID,-0.0169808,VALID,20.8672,VALID,227,VALID,0.0167101,
2002-04-07, 01:47:00,VALID,917.649,VALID,0,VALID,98.2454,VALID,-0.0509425,VALID,20.9006,VALID,227,VALID,0,
2002-04-07, 01:48:00,VALID,917.634,VALID,0,VALID,98.3001,VALID,-0.0169808,VALID,20.9189,VALID,227,VALID,0,
2002-04-07, 01:49:00,VALID,917.621,VALID,0,VALID,98.3217,VALID,-0.0169808,VALID,20.9413,VALID,227,VALID,0,
2002-04-07, 01:50:00,VALID,917.612,VALID,0,VALID,98.2187,VALID,-0.0169808,VALID,20.955,VALID,227,VALID,0,
2002-04-07, 01:51:00,VALID,917.601,VALID,0,VALID,98.0725,VALID,-0.0339617,VALID,20.8998,VALID,227,VALID,0.179241,
2002-04-07, 01:52:00,VALID,917.587,VALID,0,VALID,98.0407,VALID,-0.0509425,VALID,20.8478,VALID,282,VALID,0.162977,
2002-04-07, 01:53:00,VALID,917.606,VALID,0,VALID,97.9619,VALID,-0.0679233,VALID,20.8352,VALID,6,VALID,0.207332,
2002-04-07, 01:54:00,VALID,917.586,VALID,0,VALID,97.8258,VALID,-0.0679233,VALID,20.8133,VALID,13,VALID,0.0477679,
2002-04-07, 01:55:00,VALID,917.584,VALID,0,VALID,97.6313,VALID,0,VALID,20.7603,VALID,13,VALID,0.205448,
2002-04-07, 01:56:00,VALID,917.565,VALID,0,VALID,97.5766,VALID,-0.0339617,VALID,20.7022,VALID,15,VALID,0.124554,
2002-04-07, 01:57:00,VALID,917.551,VALID,0,VALID,97.6274,VALID,-0.0169808,VALID,20.6857,VALID,16,VALID,0.09375,
2002-04-07, 01:58:00,VALID,917.529,VALID,0,VALID,97.6351,VALID,0,VALID,20.6731,VALID,27,VALID,0.282986,
2002-04-07, 01:59:00,VALID,917.52,VALID,0,VALID,97.663,VALID,0,VALID,20.6631,VALID,29,VALID,0.32921,
2002-04-07, 02:00:00,VALID,917.506,VALID,0,VALID,97.7927,VALID,0,VALID,20.6569,VALID,45,VALID,0.382401,
2002-04-07, 02:01:00,VALID,917.477,VALID,0,VALID,97.8665,VALID,0,VALID,20.6599,VALID,77,VALID,0.384332,
2002-04-07, 02:02:00,VALID,917.467,VALID,0,VALID,97.9237,VALID,0,VALID,20.6661,VALID,88,VALID,0.534288,
2002-04-07, 02:03:00,VALID,917.463,VALID,0,VALID,97.967,VALID,0,VALID,20.6437,VALID,87,VALID,0.639022,
2002-04-07, 02:04:00,VALID,917.441,VALID,0,VALID,98.0687,VALID,-0.0169808,VALID,20.6564,VALID,83,VALID,0.576116,
2002-04-07, 02:05:00,VALID,917.431,VALID,0,VALID,98.0954,VALID,0,VALID,20.6502,VALID,81,VALID,0.46685,
2002-04-07, 02:06:00,VALID,917.42,VALID,0,VALID,98.1221,VALID,0.0169808,VALID,20.6405,VALID,81,VALID,0.442857,
2002-04-07, 02:07:00,VALID,917.4,VALID,0,VALID,98.1272,VALID,0.0339617,VALID,20.6308,VALID,84,VALID,0.528429,
2002-04-07, 02:08:00,VALID,917.383,VALID,0,VALID,98.1526,VALID,0,VALID,20.6211,VALID,88,VALID,0.427284,
2002-04-07, 02:09:00,VALID,917.361,VALID,0,VALID,98.1679,VALID,0,VALID,20.5878,VALID,91,VALID,0.435045,
2002-04-07, 02:10:00,VALID,917.355,VALID,0,VALID,98.1679,VALID,0,VALID,20.5694,VALID,93,VALID,0.521959,
2002-04-07, 02:11:00,VALID,917.337,VALID,0,VALID,98.2582,VALID,-0.0339617,VALID,20.553,VALID,95,VALID,0.562277,
2002-04-07, 02:12:00,VALID,917.32,VALID,0,VALID,98.3357,VALID,-0.101885,VALID,20.5678,VALID,110,VALID,0.603299,
2002-04-07, 02:13:00,VALID,917.316,VALID,0,VALID,98.3815,VALID,-0.0849042,VALID,20.5645,VALID,121,VALID,0.467231,
2002-04-07, 02:14:00,VALID,917.304,VALID,0,VALID,98.454,VALID,-0.0849042,VALID,20.5707,VALID,123,VALID,0.465061,
2002-04-07, 02:15:00,VALID,917.286,VALID,0,VALID,98.5176,VALID,-0.118866,VALID,20.5901,VALID,112,VALID,0.607525,
2002-04-07, 02:16:00,VALID,917.275,VALID,0,VALID,98.529,VALID,-0.0849042,VALID,20.6063,VALID,94,VALID,0.60178,
2002-04-07, 02:17:00,VALID,917.274,VALID,0,VALID,98.4947,VALID,-0.0679233,VALID,20.6028,VALID,88,VALID,0.400391,
2002-04-07, 02:18:00,VALID,917.275,VALID,0,VALID,98.3357,VALID,0.0339617,VALID,20.5272,VALID,66,VALID,0.608173,
2002-04-07, 02:19:00,VALID,917.279,VALID,0,VALID,98.2543,VALID,0.0339617,VALID,20.4593,VALID,46,VALID,0.835268,
2002-04-07, 02:20:00,VALID,917.286,VALID,0,VALID,98.2276,VALID,0.0339617,VALID,20.388,VALID,36,VALID,0.692145,
2002-04-07, 02:21:00,VALID,917.289,VALID,0,VALID,98.295,VALID,0,VALID,20.3629,VALID,53,VALID,0.424107,
2002-04-07, 02:22:00,VALID,917.291,VALID,0,VALID,98.4069,VALID,0.0339617,VALID,20.3627,VALID,86,VALID,0.562717,
2002-04-07, 02:23:00,VALID,917.287,VALID,0,VALID,98.487,VALID,0,VALID,20.385,VALID,94,VALID,0.121595,
2002-04-07, 02:24:00,VALID,917.283,VALID,0,VALID,98.5239,VALID,0,VALID,20.4047,VALID,125,VALID,0.507589,
2002-04-07, 02:25:00,VALID,917.282,VALID,0,VALID,98.5506,VALID,-0.0169808,VALID,20.4047,VALID,157,VALID,0.450591,
2002-04-07, 02:26:00,VALID,917.281,VALID,0,VALID,98.6129,VALID,0,VALID,20.4273,VALID,166,VALID,0.660491,
2002-04-07, 02:27:00,VALID,917.266,VALID,0,VALID,98.6511,VALID,0.0169808,VALID,20.4631,VALID,164,VALID,0.676866,
2002-04-07, 02:28:00,VALID,917.258,VALID,0,VALID,98.6702,VALID,0,VALID,20.4857,VALID,161,VALID,0.693793,
2002-04-07, 02:29:00,VALID,917.243,VALID,0,VALID,98.6625,VALID,0,VALID,20.5056,VALID,175,VALID,0.334635,
2002-04-07, 02:30:00,VALID,917.225,VALID,0,VALID,98.6714,VALID,0,VALID,20.5053,VALID,167,VALID,0.474301,
2002-04-07, 02:31:00,VALID,917.219,VALID,0,VALID,98.6816,VALID,-0.0169808,VALID,20.5053,VALID,164,VALID,0.371962,
2002-04-07, 02:32:00,VALID,917.22,VALID,0,VALID,98.6841,VALID,0,VALID,20.5053,VALID,160,VALID,0.324653,
2002-04-07, 02:33:00,VALID,917.203,VALID,0,VALID,98.6956,VALID,-0.0169808,VALID,20.5118,VALID,143,VALID,0.333534,
2002-04-07, 02:34:00,VALID,917.199,VALID,0,VALID,98.7108,VALID,0,VALID,20.5185,VALID,143,VALID,0.246205,
2002-04-07, 02:35:00,VALID,917.188,VALID,0,VALID,98.7108,VALID,0,VALID,20.5342,VALID,163,VALID,0.364443,
2002-04-07, 02:36:00,VALID,917.19,VALID,0,VALID,98.7185,VALID,0,VALID,20.5312,VALID,155,VALID,0.560938,
2002-04-07, 02:37:00,VALID,917.184,VALID,0,VALID,98.7159,VALID,-0.0169808,VALID,20.5309,VALID,124,VALID,0.229096,
2002-04-07, 02:38:00,VALID,917.177,VALID,0,VALID,98.7375,VALID,-0.0169808,VALID,20.5344,VALID,136,VALID,0.376202,
2002-04-07, 02:39:00,VALID,917.173,VALID,0,VALID,98.7452,VALID,0,VALID,20.5376,VALID,152,VALID,0.67433,
2002-04-07, 02:40:00,VALID,917.159,VALID,0,VALID,98.763,VALID,0,VALID,20.5603,VALID,158,VALID,0.56989,
2002-04-07, 02:41:00,VALID,917.15,VALID,0,VALID,98.7782,VALID,0,VALID,20.567,VALID,152,VALID,0.891518,
2002-04-07, 02:42:00,VALID,917.122,VALID,0,VALID,98.7757,VALID,0,VALID,20.5861,VALID,132,VALID,0.465061,
2002-04-07, 02:43:00,VALID,917.106,VALID,0,VALID,98.7846,VALID,0,VALID,20.5958,VALID,154,VALID,0.809462,
2002-04-07, 02:44:00,VALID,917.072,VALID,0,VALID,98.8062,VALID,0,VALID,20.5985,VALID,166,VALID,0.415148,
2002-04-07, 02:45:00,VALID,917.065,VALID,0,VALID,98.8024,VALID,0.0169808,VALID,20.6117,VALID,178,VALID,0.533923,
2002-04-07, 02:46:00,VALID,917.043,VALID,0,VALID,98.8253,VALID,0.0169808,VALID,20.6378,VALID,163,VALID,0.273438,
2002-04-07, 02:47:00,VALID,917.032,VALID,0,VALID,98.8355,VALID,0.0169808,VALID,20.6338,VALID,161,VALID,0.314887,
2002-04-07, 02:48:00,VALID,917.016,VALID,0,VALID,98.7935,VALID,-0.0169808,VALID,20.641,VALID,162,VALID,0.784054,
2002-04-07, 02:49:00,VALID,917.004,VALID,0,VALID,98.7846,VALID,0.0169808,VALID,20.6114,VALID,162,VALID,0.429688,
2002-04-07, 02:50:00,VALID,916.983,VALID,0,VALID,98.7871,VALID,0,VALID,20.6052,VALID,170,VALID,0.734164,
2002-04-07, 02:51:00,VALID,916.966,VALID,0,VALID,98.7884,VALID,-0.0169808,VALID,20.5953,VALID,167,VALID,0.776786,
2002-04-07, 02:52:00,VALID,916.956,VALID,0,VALID,98.7757,VALID,0.0169808,VALID,20.5791,VALID,158,VALID,0.800781,
2002-04-07, 02:53:00,VALID,916.95,VALID,0,VALID,98.7859,VALID,0.0169808,VALID,20.57,VALID,159,VALID,0.28125,
2002-04-07, 02:54:00,VALID,916.94,VALID,0,VALID,98.8177,VALID,0,VALID,20.5697,VALID,150,VALID,0.0549107,
2002-04-07, 02:55:00,VALID,916.939,VALID,0,VALID,98.8329,VALID,0.0169808,VALID,20.5891,VALID,161,VALID,0.433699,
2002-04-07, 02:56:00,VALID,916.937,VALID,0,VALID,98.8329,VALID,0,VALID,20.5988,VALID,174,VALID,0.126339,
2002-04-07, 02:57:00,VALID,916.934,VALID,0,VALID,98.8393,VALID,0.0169808,VALID,20.6017,VALID,175,VALID,0.000868056,
2002-04-07, 02:58:00,VALID,916.921,VALID,0,VALID,98.8494,VALID,0.0169808,VALID,20.6085,VALID,156,VALID,0.355903,
2002-04-07, 02:59:00,VALID,916.925,VALID,0,VALID,98.8139,VALID,0.0169808,VALID,20.6149,VALID,147,VALID,0.474392,
2002-04-07, 03:00:00,VALID,916.91,VALID,0,VALID,98.8126,VALID,0,VALID,20.602,VALID,142,VALID,0.0193257,
2002-04-07, 03:01:00,VALID,916.911,VALID,0,VALID,98.824,VALID,0.0339617,VALID,20.6087,VALID,142,VALID,0,
2002-04-07, 03:02:00,VALID,916.899,VALID,0,VALID,98.8342,VALID,0.0169808,VALID,20.612,VALID,138,VALID,0.134983,
2002-04-07, 03:03:00,VALID,916.882,VALID,0,VALID,98.8113,VALID,0,VALID,20.612,VALID,117,VALID,0.399639,
2002-04-07, 03:04:00,VALID,916.869,VALID,0,VALID,98.7706,VALID,0.0169808,VALID,20.5958,VALID,131,VALID,0.540848,
2002-04-07, 03:05:00,VALID,916.854,VALID,0,VALID,98.7515,VALID,0.0169808,VALID,20.567,VALID,150,VALID,0.524071,
2002-04-07, 03:06:00,VALID,916.846,VALID,0,VALID,98.735,VALID,0.0169808,VALID,20.56,VALID,148,VALID,0.122321,
2002-04-07, 03:07:00,VALID,916.837,VALID,0,VALID,98.7655,VALID,0,VALID,20.5632,VALID,230,VALID,0.140191,
2002-04-07, 03:08:00,VALID,916.832,VALID,0,VALID,98.7668,VALID,0.0169808,VALID,20.5824,VALID,170,VALID,0.662059,
2002-04-07, 03:09:00,VALID,916.83,VALID,0,VALID,98.707,VALID,0.0169808,VALID,20.5667,VALID,148,VALID,0.804911,
2002-04-07, 03:10:00,VALID,916.82,VALID,0,VALID,98.6816,VALID,0.0169808,VALID,20.5438,VALID,165,VALID,0.806377,
2002-04-07, 03:11:00,VALID,916.828,VALID,0,VALID,98.6409,VALID,0,VALID,20.521,VALID,155,VALID,0.911384,
2002-04-07, 03:12:00,VALID,916.821,VALID,0,VALID,98.5824,VALID,0,VALID,20.5053,VALID,160,VALID,1.13151,
2002-04-07, 03:13:00,VALID,916.802,VALID,0,VALID,98.5188,VALID,0,VALID,20.4728,VALID,153,VALID,0.934679,
2002-04-07, 03:14:00,VALID,916.792,VALID,0,VALID,98.5328,VALID,0,VALID,20.4631,VALID,166,VALID,0.765625,
2002-04-07, 03:15:00,VALID,916.773,VALID,0,VALID,98.4692,VALID,0,VALID,20.4601,VALID,155,VALID,0.998561,
2002-04-07, 03:16:00,VALID,916.764,VALID,0,VALID,98.426,VALID,0,VALID,20.4604,VALID,161,VALID,0.918403,
2002-04-07, 03:17:00,VALID,916.74,VALID,0,VALID,98.398,VALID,0,VALID,20.4569,VALID,167,VALID,0.580512,
2002-04-07, 03:18:00,VALID,916.723,VALID,0,VALID,98.3624,VALID,0,VALID,20.4467,VALID,169,VALID,0.078726,
2002-04-07, 03:19:00,VALID,916.716,VALID,0,VALID,98.3395,VALID,0,VALID,20.4695,VALID,169,VALID,0,
2002-04-07, 03:20:00,VALID,916.714,VALID,0,VALID,98.337,VALID,0,VALID,20.4792,VALID,169,VALID,0,
2002-04-07, 03:21:00,VALID,916.717,VALID,0,VALID,98.3256,VALID,0.0169808,VALID,20.5118,VALID,168,VALID,0,
2002-04-07, 03:22:00,VALID,916.736,VALID,0,VALID,98.2556,VALID,0,VALID,20.5215,VALID,137,VALID,0.269097,
2002-04-07, 03:23:00,VALID,916.75,VALID,0,VALID,98.1526,VALID,0,VALID,20.5312,VALID,106,VALID,0.343349,
2002-04-07, 03:24:00,VALID,916.76,VALID,0,VALID,98.1348,VALID,0,VALID,20.5479,VALID,120,VALID,0.00848214,
2002-04-07, 03:25:00,VALID,916.785,VALID,0,VALID,98.0712,VALID,0,VALID,20.5404,VALID,120,VALID,0.166174,
2002-04-07, 03:26:00,VALID,916.794,VALID,0,VALID,98.0534,VALID,0,VALID,20.5573,VALID,120,VALID,0.1,
2002-04-07, 03:27:00,VALID,916.801,VALID,0,VALID,98.0077,VALID,0,VALID,20.5732,VALID,120,VALID,0.0974392,
2002-04-07, 03:28:00,VALID,916.82,VALID,0,VALID,97.8894,VALID,-0.0169808,VALID,20.5665,VALID,120,VALID,0.333116,
2002-04-07, 03:29:00,VALID,916.813,VALID,0,VALID,97.8589,VALID,-0.0169808,VALID,20.5603,VALID,103,VALID,0.294054,
2002-04-07, 03:30:00,VALID,916.827,VALID,0,VALID,97.8411,VALID,0,VALID,20.5734,VALID,80,VALID,0.371916,
2002-04-07, 03:31:00,VALID,916.836,VALID,0,VALID,97.8169,VALID,0,VALID,20.5826,VALID,76,VALID,0.564236,
2002-04-07, 03:32:00,VALID,916.844,VALID,0,VALID,97.7635,VALID,0,VALID,20.5891,VALID,72,VALID,0.607856,
2002-04-07, 03:33:00,VALID,916.852,VALID,0,VALID,97.7648,VALID,-0.0169808,VALID,20.5958,VALID,56,VALID,0.582732,
2002-04-07, 03:34:00,VALID,916.844,VALID,0,VALID,97.7559,VALID,0.0169808,VALID,20.6058,VALID,64,VALID,0.59933,
2002-04-07, 03:35:00,VALID,916.857,VALID,0,VALID,97.761,VALID,0,VALID,20.6152,VALID,70,VALID,0.456292,
2002-04-07, 03:36:00,VALID,916.854,VALID,0,VALID,97.7381,VALID,0,VALID,20.6219,VALID,62,VALID,0.699777,